Location: ??
(35.5386°N, 139.7291°E)
Time: 03:28:54
(UTC+00:00)

Cosmos 1484 Rocket - Pass Details

Date: 13 December 2025
Orbit: 438 x 471 km, 97.6° (Epoch: 21 January)

Event Time Altitude Azimuth Distance (km) Brightness Sun altitude
Rises 20:24:41 0° 11° (N) 2,454 6.1 -15.3°
Reaches altitude 10° 20:26:43 10° 11° (N) 1,573 5.1 -14.9°
Maximum altitude 20:30:05 87° 282° (WNW) 448 2.3 -14.3°
Drops below altitude 10° 20:33:24 10° 194° (SSW) 1,547 5.2 -13.7°
Sets 20:35:24 0° 194° (SSW) 2,409 6.2 -13.3°
